Location: Dalton
(34.7700°N, 84.9700°W)
Time: 21:27:45
(UTC-04:00)

OTV 5 (USA 277) - Pass Details

Date: 07 October 2017
Orbit: 404 x 417 km, 43.0° (Epoch: 07 September)

Event Time Altitude Azimuth Distance (km) Brightness Sun altitude
Rises 20:36:06 0° 225° (SW) 2,341 ? -17.4°
Reaches altitude 10° 20:38:16 10° 218° (SW) 1,481 ? -17.9°
Enters shadow 20:41:10 41° 161° (SSE) 615 ? -18.5°
